Le nostre stazioni meteo in Italia

Pubblicità
Il mio iltempo24.it
Bergamo/Orio al Serio, Italia (16076): Temperatura & dewpoint: 13.03.2019 19:00:00 - 19.03.2019 19:00:00 (CET)Bergamo/Orio al Serio, Italia (16076): velocità del vento: 13.03.2019 19:00:00 - 19.03.2019 19:00:00 (CET)Bergamo/Orio al Serio, Italia (16076): direzione del vento: 13.03.2019 19:00:00 - 19.03.2019 19:00:00 (CET)Bergamo/Orio al Serio, Italia (16076): reduced air pressure: 13.03.2019 19:00:00 - 19.03.2019 19:00:00 (CET)Bergamo/Orio al Serio, Italia (16076): visibility: 13.03.2019 19:00:00 - 19.03.2019 19:00:00 (CET)Bergamo/Orio al Serio, Italia (16076): precipitazioni: 13.03.2019 19:00:00 - 19.03.2019 19:00:00 (CET)
Data & Tempo tt [°C] td [°C] ff [km/h] ff [kn] dd ppp [hPa] vv [km] rr [mm]
19.03.2019 19:00:00 11,0 -1,0 9 5 SSE - 10 -
19.03.2019 18:00:00 12,0 -1,0 11 6 S - 10 -
19.03.2019 17:00:00 12,0 -1,0 9 5 S - 10 -
19.03.2019 16:00:00 11,9 -0,8 13 7 S 1022,4 10 0,0
19.03.2019 15:00:00 12,0 -1,0 11 6 S - 10 -
19.03.2019 14:00:00 12,0 -1,0 9 5 SSE - 10 -
19.03.2019 13:00:00 11,7 -0,9 8 4 SSE 1022,9 10 -
19.03.2019 12:00:00 11,0 0,0 9 5 SSE - 10 -
19.03.2019 11:00:00 10,0 -1,0 9 5 SSE - 10 -
19.03.2019 10:00:00 9,0 -0,1 2 1 - 1022,9 10 0,0
19.03.2019 09:00:00 7,0 1,0 2 1 - - 10 -
19.03.2019 08:00:00 4,0 0,0 4 2 - - 10 -
19.03.2019 07:00:00 2,4 -0,3 5 3 N 1021,2 10 -
19.03.2019 06:00:00 2,0 0,0 8 4 N - 10 -
19.03.2019 05:00:00 3,0 1,0 5 3 N - 10 -
19.03.2019 04:00:00 3,7 1,6 5 3 N 1020,6 10 0,0
19.03.2019 03:00:00 4,0 3,0 4 2 N - 10 -
19.03.2019 02:00:00 4,0 3,0 4 2 - - 10 -
19.03.2019 01:00:00 5,0 3,0 4 2 E - 10 -
19.03.2019 00:00:00 5,0 3,0 2 1 N - 10 -
18.03.2019 23:00:00 7,0 4,0 5 3 SO - 10 -
18.03.2019 22:00:00 7,1 3,7 9 5 SSE 1020,0 10 0,0
18.03.2019 21:00:00 8,0 5,0 21 11 SE - 10 -
18.03.2019 20:00:00 10,0 5,0 18 10 SE - 10 -
18.03.2019 19:00:00 11,0 2,1 9 5 E 1016,4 10 -
18.03.2019 18:00:00 12,0 1,0 9 5 E - 10 -
18.03.2019 17:00:00 13,0 0,0 18 10 ESE - 10 -
18.03.2019 16:00:00 15,0 0,5 11 6 S 1013,7 10 0,0
18.03.2019 15:00:00 15,0 0,0 15 8 SSE - 10 -
18.03.2019 14:00:00 14,0 -1,0 18 10 S - 10 -
18.03.2019 13:00:00 14,6 -0,9 9 5 SSO 1013,8 10 -
18.03.2019 12:00:00 13,0 -1,0 11 6 SO - 10 -
18.03.2019 11:00:00 13,0 0,0 5 3 - - 10 -
18.03.2019 10:00:00 11,3 -0,3 4 2 - 1013,0 10 0,0
18.03.2019 09:00:00 9,0 1,0 11 6 N - 10 -
18.03.2019 08:00:00 8,0 0,0 11 6 NE - 10 -
18.03.2019 07:00:00 7,3 1,4 9 5 NNE 1010,8 10 -
18.03.2019 06:00:00 8,0 2,0 22 12 N - 10 -
18.03.2019 05:00:00 8,0 3,0 21 11 NNE - 10 -
18.03.2019 04:00:00 7,1 3,8 29 16 NNE 1008,0 10 0,0
18.03.2019 03:00:00 8,0 7,0 18 10 O - 5 -
18.03.2019 02:00:00 10,0 8,0 2 1 ESE - 10 -
18.03.2019 01:00:00 10,3 7,6 2 1 NNE 1009,0 10 -
18.03.2019 00:00:00 11,0 7,0 4 2 - - 10 -
17.03.2019 23:00:00 11,0 7,0 9 5 O - 10 -
17.03.2019 22:00:00 11,6 6,8 4 2 O 1010,9 10 0,0
17.03.2019 21:00:00 12,0 7,0 2 1 - - 10 -
17.03.2019 20:00:00 12,0 7,0 8 4 O - 10 -
17.03.2019 19:00:00 12,3 6,9 9 5 O 1011,6 10 -
17.03.2019 18:00:00 13,0 7,0 11 6 O - 10 -
17.03.2019 17:00:00 13,0 8,0 9 5 O - 10 -
17.03.2019 16:00:00 13,7 7,8 11 6 O 1012,5 10 0,0
17.03.2019 15:00:00 14,0 7,0 13 7 O - 10 -
17.03.2019 14:00:00 13,0 8,0 5 3 O - 10 -
17.03.2019 13:00:00 12,9 7,3 9 5 OSO 1014,7 9 -
17.03.2019 12:00:00 - - - - - - - -
17.03.2019 11:00:00 13,0 7,0 8 4 S - 7 -
17.03.2019 10:00:00 12,5 6,1 5 3 SSE 1015,9 8 0,0
17.03.2019 09:00:00 11,0 6,0 2 1 - - 6 -
17.03.2019 08:00:00 7,0 4,0 4 2 N - 6 -
17.03.2019 07:00:00 6,3 4,0 5 3 NNE 1015,7 5 -
17.03.2019 06:00:00 7,0 4,0 8 4 NNE - 6 -
17.03.2019 05:00:00 8,0 5,0 5 3 N - 6 -
17.03.2019 04:00:00 7,7 4,8 5 3 N 1015,5 7 0,0
17.03.2019 03:00:00 8,0 5,0 8 4 N - 8 -
17.03.2019 02:00:00 7,0 5,0 4 2 - - 8 -
17.03.2019 01:00:00 8,1 4,3 5 3 N 1015,8 8 -
17.03.2019 00:00:00 8,0 6,0 4 2 - - 8 -
16.03.2019 23:00:00 11,0 6,0 0 0 N - 8 -
16.03.2019 22:00:00 11,7 6,1 4 2 - 1015,4 8 0,0
16.03.2019 21:00:00 13,0 6,0 13 7 ESE - 8 -
16.03.2019 20:00:00 15,0 5,0 4 2 - - 10 -
16.03.2019 19:00:00 15,7 3,7 5 3 SSE 1012,8 10 -
16.03.2019 18:00:00 21,0 4,0 11 6 OSO - 10 -
16.03.2019 17:00:00 22,0 3,0 16 9 SO - 10 -
16.03.2019 16:00:00 22,1 2,5 21 11 OSO 1012,2 10 0,0
16.03.2019 15:00:00 22,0 4,0 16 9 OSO - 10 -
16.03.2019 14:00:00 21,0 4,0 11 6 SO - 10 -
16.03.2019 13:00:00 19,6 4,5 8 4 SSO 1013,9 10 -
16.03.2019 12:00:00 17,0 4,0 8 4 SO - 10 -
16.03.2019 11:00:00 15,0 6,0 8 4 S - 10 -
16.03.2019 10:00:00 14,8 4,2 4 2 - 1014,3 10 0,0
16.03.2019 09:00:00 12,0 4,0 2 1 - - 10 -
16.03.2019 08:00:00 7,0 2,0 8 4 N - 10 -
16.03.2019 07:00:00 7,2 2,0 5 3 N 1013,0 10 -
16.03.2019 06:00:00 6,0 2,0 2 1 - - 10 -
16.03.2019 05:00:00 7,0 2,0 5 3 N - 10 -
16.03.2019 04:00:00 6,9 2,7 5 3 N 1012,0 10 0,0
16.03.2019 03:00:00 8,0 3,0 4 2 - - 10 -
16.03.2019 02:00:00 8,0 3,0 2 1 - - 10 -
16.03.2019 01:00:00 9,4 2,7 4 2 - 1012,7 10 -
16.03.2019 00:00:00 12,0 3,0 4 2 - - 10 -
15.03.2019 23:00:00 13,0 3,0 21 11 O - 10 -
15.03.2019 22:00:00 13,7 3,3 15 8 O 1011,8 10 0,0
15.03.2019 21:00:00 15,0 3,0 16 9 OSO - 10 -
15.03.2019 20:00:00 16,0 3,0 16 9 O - 10 -
15.03.2019 19:00:00 16,2 2,5 11 6 O 1010,3 10 -
15.03.2019 18:00:00 19,0 3,0 28 15 OSO - 10 -
15.03.2019 17:00:00 20,0 3,0 26 14 OSO - 10 -
15.03.2019 16:00:00 20,4 2,5 24 13 OSO 1009,0 10 0,0
15.03.2019 15:00:00 20,0 2,0 28 15 O - 10 -
15.03.2019 14:00:00 19,0 3,0 26 14 OSO - 10 -
15.03.2019 13:00:00 16,3 4,3 11 6 E 1010,0 10 -
15.03.2019 12:00:00 15,0 4,0 5 3 - - 10 -
15.03.2019 11:00:00 14,0 3,0 11 6 S - 10 -
15.03.2019 10:00:00 12,5 1,8 8 4 SSE 1010,4 10 0,0
15.03.2019 09:00:00 9,0 2,0 5 3 ENE - 10 -
15.03.2019 08:00:00 7,0 2,0 8 4 ESE - 10 -
15.03.2019 07:00:00 5,1 1,2 5 3 N 1009,1 10 -
15.03.2019 06:00:00 5,0 0,0 11 6 O - 10 -
15.03.2019 05:00:00 4,0 -1,0 8 4 NE - 10 -
15.03.2019 04:00:00 5,8 -0,4 2 1 - 1008,6 10 0,0
15.03.2019 03:00:00 8,0 0,0 4 2 - - 10 -
15.03.2019 02:00:00 7,0 -1,0 8 4 ONO - 10 -
15.03.2019 01:00:00 6,1 -0,7 8 4 NNE 1008,5 10 -
15.03.2019 00:00:00 6,0 -2,0 4 2 - - 10 -
14.03.2019 23:00:00 7,0 -3,0 8 4 ESE - 10 -
14.03.2019 22:00:00 7,3 -2,8 5 3 NNO 1008,4 10 0,0
14.03.2019 21:00:00 10,0 -4,0 9 5 ONO - 10 -
14.03.2019 20:00:00 12,0 -5,0 2 1 - - 10 -
14.03.2019 19:00:00 12,3 -4,8 9 5 ONO 1008,7 10 -
14.03.2019 18:00:00 13,0 -5,0 15 8 O - 10 -
14.03.2019 17:00:00 14,0 -5,0 18 10 O - 10 -
14.03.2019 16:00:00 14,5 -5,3 21 11 OSO 1009,6 10 0,0
14.03.2019 15:00:00 - - - - - - - -
14.03.2019 14:00:00 14,0 -2,0 24 13 SO - 10 -
14.03.2019 13:00:00 13,9 -2,1 18 10 SO 1012,3 10 -
14.03.2019 12:00:00 12,0 3,0 11 6 SO - 10 -
14.03.2019 11:00:00 10,0 -1,0 8 4 SSO - 10 -
14.03.2019 10:00:00 8,6 -2,4 4 2 - 1014,7 10 0,0
14.03.2019 09:00:00 6,0 -1,0 2 1 - - 10 -
14.03.2019 08:00:00 3,0 -2,0 8 4 N - 10 -
14.03.2019 07:00:00 1,7 -3,1 8 4 N 1014,9 10 -
14.03.2019 06:00:00 2,0 -3,0 4 2 - - 10 -
14.03.2019 05:00:00 2,0 -2,0 8 4 N - 10 -
14.03.2019 04:00:00 2,4 -1,4 5 3 NNE 1014,7 10 0,0
14.03.2019 03:00:00 2,0 -1,0 9 5 NNE - 10 -
14.03.2019 02:00:00 2,0 -1,0 2 1 - - 10 -
14.03.2019 01:00:00 2,9 -0,8 5 3 N 1014,5 10 -
14.03.2019 00:00:00 4,0 0,0 8 4 N - 10 -
13.03.2019 23:00:00 4,0 1,0 5 3 NNO - 10 -
13.03.2019 22:00:00 3,5 1,9 4 2 N 1013,9 10 0,0
13.03.2019 21:00:00 5,0 2,0 2 1 - - 10 -
13.03.2019 20:00:00 7,0 1,0 4 2 - - 10 -
13.03.2019 19:00:00 7,5 0,3 11 6 SE 1012,4 10 -

tt = Temperatura
td = dewpoint
ff = velocità del vento
dd = direzione del vento
ppp = reduced air pressure
vv = visibility
rr = precipitazioni

Stazioni seguenti

WeatherPro
AMSI
MeteoEarth